sat.trackr.live / text

‹ back to catalog

STARLINK-35558

NORAD 66060 · 2025-235C

PAYLOAD ACTIVE UNKNOWN

§ Identity

Operator
Country
US
Launch date
2025-10-19
Launch site
AFETR
Launch vehicle
Mass (kg)
RCS (m²)

Purposes: comms

External: N2YO · Heavens-Above · Gunter

§ Orbital elements

Epoch: 2026-09-20T21:39:46.727424Z

Period
93.85 min
Inclination
53.1608°
Eccentricity
0.0001045
Mean motion
15.34398538 rev/d
Perigee alt
462.0 km
Apogee alt
463.4 km
Semi-major
6,840.8 km
B*
6.6205e-4
RAAN
57.5277°
Arg perigee
57.5769°
Mean anomaly
302.5335°
Rev number
5,282

§ Raw data

STARLINK-355581 66060U 25235C   26263.90262416  .00022057  00000+0  66205-3 0  99912 66060  53.1608  57.5277 0001045  57.5769 302.5335 15.34398538 52822

JSON: /api/v1/satellites/66060 · /tle

For live sub-satellite position, see the globe view (requires WebGL).

§ Visibility from observer

Set your observer location to see the next 7 days of passes ≥ 10°. The values pass through the URL so the page stays shareable.

No JS? Fill the form by hand. The geolocation button needs JavaScript.